Presure
240 251 237 253 301 305 299 276 283 271 266 269 254 266 261 260 242 252 246 243 247 253 248 241 238 241 237 250 261 260 255 241 225 240 231 227 248 254 254 252 237 241 245 260 280 258 344 285 307 296 264 239 217 217
245 293 285 294 289 286 280 270 294 297 264 275 270 256 256 253 258 243 246 253 250 245 252 250 258 265 256 262 262 244 246 254 247 235 248 257 261 257 251 263 263 271 270 276 341 370 333 309 302 288 258 223 215 215
276 250 268 291 290 284 249 248 246 263 281 281 279 269 280 282 272 272 262 264 275 271 273 267 265 250 252 252 260 247 243 246 256 263 232 248 247 253 276 283 270 275 277 338 348 320 303 309 300 279 249 220 214 215
268 280 276 266 286 287 266 274 270 261 254 250 263 262 267 262 268 260 262 260 255 264 280 211 259 268 263 273 274 266 269 274 273 274 283 284 283 285 270 275 286 294 364 323 320 295 300 315 289 266 232 214 213 228
289 282 266 276 265 294 288 284 291 287 301 286 280 296 321 311 313 292 293 292 291 297 287 275 190 148 263 304 305 292 294 287 291 291 288 265 274 278 286 307 349 315 305 310 287 268 300 313 286 253 223 212 213 238
264 261 287 274 298 271 278 251 288 292 305 310 314 303 299 295 302 284 314 319 326 331 337 321 324 308 295 293 296 300 287 288 287 298 305 351 340 334 324 304 421 405 398 431 279 279 305 327 268 240 220 213 230 206
285 283 282 280 304 303 314 281 311 303 300 304 273 289 279 283 293 291 285 301 321 299 251 110 167 169 278 289 276 276 272 272 287 300 306 299 171 334 386 402 381 383 386 388 416 302 315 285 257 228 214 212 230 258
310 292 290 293 310 281 279 276 273 268 272 283 286 287 282 275 273 293 297 302 314 209 208 306 292 304 311 304 297 288 284 283 282 283 337 381 367 368 428 372 362 359 368 403 382 292 325 271 241 224 214 219 226 250
274 284 271 271 282 276 295 299 290 301 290 292 296 415 437 420 416 409 413 416 442 459 475 496 453 351 436 419 400 384 380 376 382 368 358 348 385 405 368 344 349 359 361 387 292 321 279 258 233 219 216 218 229 237
268 298 284 300 283 319 292 295 451 445 441 437 433 430 424 414 421 417 412 416 423 436 450 448 402 398 404 413 366 360 353 351 362 359 365 388 333 335 327 334 342 349 366 294 306 279 263 245 228 216 213 219 221 229
291 283 308 303 286 449 437 427 417 408 407 404 398 393 393 388 384 382 382 391 433 413 395 380 371 384 353 338 333 333 342 338 348 357 365 312 307 313 320 332 338 348 288 288 303 267 252 236 225 216 216 217 200 214
309 287 290 437 425 412 402 392 392 411 407 418 427 441 454 486 363 357 385 419 385 359 370 359 334 322 316 317 331 325 324 332 331 321 333 300 308 309 320 328 339 286 285 303 272 260 245 234 225 215 213 208 197 215
416 429 416 402 392 381 375 399 400 397 402 414 426 476 461 433 350 375 396 366 354 350 323 317 302 303 311 319 314 326 321 326 323 324 319 301 310 310 318 330 285 275 294 276 260 250 240 229 222 218 215 222 211 208
409 396 384 371 361 396 397 391 385 385 389 406 427 426 438 352 353 387 369 350 340 325 314 308 306 306 311 304 301 306 307 315 309 298 302 315 313 307 317 316 278 278 283 262 252 244 236 225 219 219 212 217 213 209
377 366 363 380 381 379 377 393 390 388 387 424 427 432 350 342 389 393 336 330 318 310 307 305 307 312 308 298 296 293 284 278 282 288 287 306 320 308 311 279 268 288 273 258 248 240 234 225 220 216 214 204 221 219
350 365 372 368 373 378 383 385 391 389 414 414 424 369 338 391 404 342 327 314 309 302 305 305 312 296 301 287 281 276 273 281 274 285 290 291 310 323 281 273 276 285 261 253 245 238 232 225 219 216 215 204 218 217
369 362 367 366 367 371 380 379 387 404 419 453 400 344 385 392 363 323 317 309 301 305 307 307 307 307 283 281 271 273 283 272 273 282 283 286 298 318 268 271 281 273 259 250 242 237 229 225 221 216 215 212 203 203
360 360 359 356 362 369 380 377 395 417 444 467 348 368 371 357 316 309 308 303 301 307 307 298 285 287 276 275 272 272 277 276 268 271 283 294 304 284 263 273 272 265 258 249 239 235 231 224 224 220 215 215 212 205
351 353 351 346 356 373 363 399 419 437 389 369 364 352 352 330 308 305 300 299 296 306 287 285 283 273 271 272 267 267 267 270 270 274 282 287 300 285 255 256 267 260 256 247 240 235 231 225 223 224 222 216 215 215
345 343 340 343 359 369 395 414 352 320 339 380 349 345 339 322 309 303 295 301 293 302 279 279 269 273 266 267 268 265 267 265 272 275 277 283 296 259 249 250 267 259 255 250 242 235 233 230 224 220 222 222 222 218
340 339 335 343 359 381 404 323 369 375 386 333 347 340 330 310 313 301 298 295 290 279 270 273 276 267 265 267 268 262 269 275 278 273 281 281 287 258 245 250 258 259 249 251 252 243 235 229 226 227 224 223 223 224
332 336 336 343 356 383 320 344 380 346 333 319 338 309 324 309 302 299 295 277 273 272 275 271 271 272 273 260 263 271 271 273 272 273 277 282 288 259 247 238 234 265 255 251 247 247 246 240 236 229 231 229 228 228
325 330 333 345 363 383 407 372 350 324 385 330 325 319 314 306 302 289 271 271 274 269 266 263 261 262 263 261 262 269 268 272 271 267 268 271 275 277 277 251 245 242 248 252 251 244 245 249 245 243 241 238 232 227
324 328 334 342 370 378 349 342 370 350 335 331 323 317 299 307 299 285 281 277 267 268 259 257 255 257 259 259 259 259 262 262 264 265 265 264 266 263 263 265 252 246 246 252 253 259 254 242 240 248 252 250 245 245
322 330 333 341 362 375 323 305 349 318 319 318 321 293 302 301 274 276 279 264 269 261 257 256 251 247 249 255 250 250 252 252 257 259 260 259 258 257 259 249 252 259 264 262 258 254 252 250 249 248 247 246 249 253
316 329 333 342 356 357 305 296 281 325 313 317 291 311 300 278 267 268 269 267 255 264 256 255 253 248 248 247 247 247 250 251 251 251 256 256 255 253 254 252 252 253 252 253 247 257 262 261 261 265 268 268 260 246
317 326 331 341 348 360 382 295 279 320 316 319 298 316 298 274 274 261 261 265 262 265 253 257 248 247 245 255 257 252 251 253 253 251 252 254 250 252 252 252 254 254 257 253 254 259 267 270 277 274 269 267 266 268
320 317 326 341 350 374 470 304 286 335 321 314 295 298 296 277 261 272 262 254 264 265 265 256 248 250 251 247 248 250 249 250 252 251 252 252 251 251 251 251 252 251 251 253 256 255 254 257 258 261 266 260 258 261
324 315 321 338 347 381 460 308 300 342 316 306 298 302 290 289 271 272 255 258 254 237 264 263 262 251 242 252 253 246 247 246 247 245 247 248 248 249 248 246 246 248 244 246 243 238 240 243 251 242 241 244 258 278
329 313 317 332 338 367 426 323 292 286 274 311 294 301 300 261 258 266 254 258 250 261 263 265 262 262 254 255 251 250 248 253 258 253 250 249 251 248 245 245 246 247 247 252 261 257 257 254 255 257 263 270 275 273
335 318 312 323 338 348 375 368 308 293 281 273 295 300 305 305 263 251 278 258 264 250 256 264 260 256 253 251 248 245 256 251 249 243 253 255 254 253 253 253 254 257 256 259 255 258 256 256 255 258 253 266 258 261
301 334 311 312 328 336 349 363 326 304 294 284 274 292 298 304 307 289 269 254 260 273 248 251 261 251 254 243 232 254 255 254 251 251 250 252 248 248 254 253 255 253 253 258 244 256 265 257 261 273 277 268 286 279
366 312 330 310 311 327 336 343 350 321 306 293 290 316 301 299 299 300 309 274 266 263 274 249 248 258 262 254 254 253 230 231 236 243 250 249 252 253 254 250 252 251 265 268 264 273 257 251 255 258 262 267 277 285
Wind_Speed
108 110 104 105 63 59 61 68 68 66 67 68 70 69 74 75 76 78 81 79 78 79 81 79 81 77 75 74 69 72 75 75 72 75 70 69 72 74 73 74 69 67 62 65 65 44 34 49 42 37 32 27 30 31
111 81 76 64 67 63 61 61 59 62 69 73 74 74 75 77 79 77 79 80 80 77 80 83 85 84 80 82 76 71 72 78 80 79 81 80 76 73 72 72 77 71 71 65 59 40 40 41 42 37 36 30 32 31
88 89 81 69 65 65 65 65 63 64 63 67 73 76 74 79 84 84 81 80 82 81 79 74 79 78 78 77 77 74 78 81 82 86 73 76 68 69 75 73 71 67 66 62 50 36 40 42 42 41 35 32 33 30
88 79 78 78 70 66 70 70 71 72 71 70 71 72 74 74 78 77 76 77 73 74 77 62 81 82 82 83 82 80 85 85 87 88 87 83 81 82 75 69 68 68 64 54 43 40 46 42 47 42 37 35 32 28
73 78 79 76 74 66 67 69 72 76 76 78 75 76 77 79 80 84 83 85 87 89 79 74 50 38 78 85 85 81 81 80 83 84 83 72 76 77 79 80 70 63 60 59 49 54 48 49 49 46 39 35 32 20
78 77 73 77 70 73 73 70 76 76 77 78 79 79 79 78 78 73 76 82 87 91 86 77 77 80 83 78 76 79 76 75 79 83 81 69 68 74 74 69 22 34 42 33 58 61 56 50 53 46 40 34 26 19
74 75 77 75 73 74 74 74 76 76 76 77 75 76 76 75 76 73 73 81 86 79 58 20 8 15 75 75 71 71 69 71 73 72 68 68 37 58 40 22 34 37 28 26 26 61 55 58 55 46 41 34 24 13
71 75 75 75 75 75 75 75 74 74 75 77 77 77 75 75 74 75 80 76 77 35 42 65 70 69 73 76 72 71 70 69 67 64 42 28 32 35 23 33 31 29 22 18 50 54 59 62 53 46 40 34 27 14
75 75 75 75 76 76 77 78 77 77 77 77 78 46 40 44 41 43 44 41 34 30 28 22 16 28 33 29 24 23 26 24 24 20 23 30 23 13 28 35 33 29 28 33 60 61 66 63 55 47 42 37 27 19
74 74 76 76 75 79 76 75 31 31 31 31 32 32 29 29 30 25 24 22 20 14 3 17 32 29 26 26 22 20 20 17 7 15 19 17 32 36 34 30 31 30 34 64 63 70 70 63 55 49 44 38 31 23
74 73 76 75 74 27 28 29 30 31 33 32 30 29 26 27 21 18 15 11 6 18 37 35 32 21 28 27 23 21 16 14 12 16 19 35 37 34 31 30 35 38 64 64 69 73 70 64 57 51 46 42 30 29
75 71 74 24 25 27 27 29 29 26 27 22 22 21 21 23 14 12 9 12 36 37 35 31 32 28 26 26 25 23 20 14 23 27 38 46 41 43 34 35 36 66 64 68 74 73 69 63 57 52 47 40 31 33
29 22 23 25 27 29 29 20 21 23 22 17 15 11 11 13 15 16 25 51 49 49 50 49 43 39 33 31 23 18 17 15 21 22 33 48 45 45 36 31 67 64 65 72 73 71 67 63 57 53 49 46 41 36
21 24 26 27 28 19 17 19 23 23 19 15 11 13 13 22 24 28 51 55 56 55 50 46 43 38 35 28 29 29 25 21 30 35 33 28 41 48 45 53 68 68 70 75 74 70 68 62 57 54 49 48 43 38
24 25 25 19 18 18 20 17 19 18 16 13 14 15 27 24 31 40 57 56 53 48 45 42 40 36 30 33 38 39 38 34 32 26 30 19 23 45 51 69 68 68 74 75 73 70 67 62 58 55 51 43 45 44
24 21 17 17 18 16 15 17 16 16 15 12 15 29 25 34 36 67 59 54 53 47 43 38 36 31 32 35 40 41 40 37 35 24 25 25 21 28 66 65 66 68 74 74 71 69 66 63 59 56 52 46 47 45
14 15 14 14 15 14 14 14 14 15 14 13 28 26 35 38 56 64 58 55 47 44 42 37 35 34 43 41 45 41 34 38 33 26 30 28 28 25 61 62 63 69 71 72 70 67 64 62 59 55 53 50 44 41
12 11 11 12 12 12 13 11 11 13 12 14 29 32 42 55 66 59 56 49 46 44 40 45 47 48 49 43 38 35 33 32 36 33 24 23 24 57 60 60 62 67 68 69 70 65 63 60 59 56 54 52 49 45
11 9 9 9 11 12 10 13 9 10 24 30 35 46 53 66 62 57 51 49 44 44 53 50 52 52 47 47 42 37 35 32 32 29 27 26 28 53 59 57 60 63 65 67 69 66 63 60 57 57 56 53 52 51
8 8 8 8 10 9 10 7 22 24 30 33 47 52 58 65 62 57 50 48 42 44 49 52 50 48 46 45 44 42 41 39 34 31 32 32 32 55 54 54 57 60 63 65 66 64 62 60 58 56 56 56 55 53
6 7 8 7 7 7 6 24 20 28 35 44 53 56 59 58 60 56 49 45 50 54 50 48 46 47 47 44 42 40 36 29 28 30 28 32 34 52 52 52 54 58 59 59 62 64 63 59 58 58 57 57 56 55
6 7 6 7 6 5 23 20 22 38 44 45 55 49 57 58 57 55 49 55 54 51 48 47 45 44 44 42 40 34 30 31 31 30 26 28 30 47 51 52 52 53 56 58 59 59 62 64 63 61 61 60 59 59
7 6 6 5 5 5 10 22 36 39 48 52 54 53 59 60 62 49 54 55 57 56 55 52 48 45 42 40 36 30 33 33 33 32 32 32 33 36 40 50 52 51 52 54 56 58 59 60 63 64 64 64 63 62
8 7 5 4 3 8 25 33 32 53 55 58 53 57 57 63 59 54 56 59 59 60 57 53 50 46 43 40 36 32 32 34 34 35 35 35 35 37 40 41 50 51 51 52 53 54 57 58 59 59 60 62 64 65
9 8 8 7 5 12 36 32 45 42 48 48 52 51 61 58 59 60 60 62 61 63 58 56 54 48 45 41 41 39 36 36 36 36 36 36 36 38 40 44 45 44 44 46 48 51 52 54 55 55 56 57 60 62
12 10 10 10 9 20 37 34 30 53 46 50 48 58 57 62 60 62 63 64 57 64 61 57 56 52 48 45 44 43 41 40 40 39 39 39 39 41 42 43 44 45 46 46 47 47 46 49 51 52 52 54 56 57
14 12 11 12 15 20 26 40 33 50 47 52 47 52 60 63 65 62 63 62 61 61 61 59 55 51 49 47 45 45 43 43 44 44 44 45 46 45 46 46 45 46 45 46 46 45 43 42 40 43 47 49 51 50
17 15 13 13 13 15 13 41 37 61 52 50 46 51 58 63 64 65 66 60 60 59 60 60 55 54 51 49 48 47 47 46 45 45 45 46 46 46 47 47 47 47 47 46 44 44 45 44 43 43 44 48 51 53
19 17 16 14 14 11 15 42 39 61 48 48 49 56 55 60 67 69 62 63 61 41 59 60 61 59 54 55 55 53 52 51 49 48 48 48 49 48 48 50 49 49 49 48 48 49 50 50 49 50 53 55 55 50
22 20 18 15 17 14 17 46 42 46 44 49 51 53 60 71 67 70 64 64 59 63 62 63 64 64 63 63 61 59 57 56 54 54 53 52 52 52 53 54 54 53 53 50 46 49 50 53 53 53 53 53 56 59
24 23 22 19 19 19 20 35 49 44 47 46 48 51 54 64 72 62 67 68 68 61 65 69 69 68 67 64 62 55 62 60 57 54 54 54 54 54 54 54 54 53 52 51 52 52 53 54 56 57 58 59 61 64
21 27 25 24 22 23 25 28 51 53 50 49 48 49 50 54 63 71 75 66 69 71 58 62 73 67 69 54 35 65 64 63 60 60 59 59 59 58 59 58 58 56 55 56 54 58 56 59 60 57 57 60 57 63
16 26 29 27 25 26 28 30 34 53 56 53 49 58 53 54 56 59 62 74 75 72 76 60 58 73 76 71 72 70 35 31 38 55 60 60 61 60 60 57 58 57 59 62 63 60 62 61 61 63 63 62 63 64
Wind_Direction
290 292 296 297 279 271 270 270 265 265 265 263 263 259 257 259 262 261 260 262 263 263 265 267 270 271 270 269 269 262 261 263 267 262 264 268 265 265 266 266 270 273 276 278 279 277 262 250 242 236 236 235 250 260
292 286 287 274 280 278 274 275 269 267 267 266 264 262 262 262 259 263 262 262 262 262 262 265 267 267 269 269 267 261 262 262 263 265 264 264 265 267 267 268 270 272 274 275 277 259 242 236 232 225 226 231 246 256
286 290 288 273 274 273 278 278 272 271 265 264 264 264 263 263 263 263 265 265 263 262 262 265 264 266 266 265 265 263 263 264 264 264 271 270 271 269 270 270 268 270 269 271 258 248 237 228 218 215 220 228 241 253
285 279 281 283 278 272 276 275 273 274 272 271 267 267 266 268 267 266 266 266 267 265 261 263 266 265 265 265 264 264 264 265 263 266 267 270 273 274 271 270 269 269 264 257 246 232 229 223 211 208 213 226 238 252
277 275 282 281 280 275 272 273 271 271 268 269 271 270 268 266 266 265 265 264 265 264 263 262 262 261 265 267 264 264 264 265 266 268 270 269 271 271 272 272 272 267 256 244 230 229 220 213 202 205 210 223 236 244
281 280 278 280 274 278 275 278 273 273 274 273 272 271 271 270 268 269 267 266 265 265 265 264 262 264 267 266 266 265 265 266 268 268 270 271 269 270 269 271 238 232 236 236 223 221 212 201 198 199 208 218 224 230
279 278 278 279 280 278 278 278 277 276 276 275 274 274 273 273 272 271 270 265 266 268 267 191 251 307 263 266 266 266 266 263 264 266 268 267 250 264 251 261 204 216 213 215 213 208 201 189 197 199 210 215 213 212
282 279 279 280 281 280 280 279 279 279 278 277 276 275 274 273 273 271 267 268 268 265 260 270 263 260 257 261 263 264 263 263 265 266 258 240 238 249 243 189 201 206 204 219 183 194 186 191 192 196 206 208 207 191
279 280 280 281 281 281 282 282 281 281 279 277 277 272 269 273 271 263 265 267 265 267 267 273 182 193 205 214 214 212 215 221 223 221 221 233 233 218 169 195 201 182 182 184 184 179 185 192 191 198 201 207 189 182
281 283 282 284 284 286 285 284 275 274 274 272 271 272 272 266 264 264 265 267 272 274 276 179 185 191 195 179 185 186 200 218 226 211 217 205 149 163 182 180 177 178 179 177 176 176 187 191 192 199 202 201 197 180
284 285 287 287 287 276 276 276 276 274 272 274 275 273 265 260 261 252 252 251 241 135 151 172 185 184 152 161 178 189 181 185 168 195 169 170 175 173 174 176 178 176 176 176 171 181 188 190 192 198 199 202 211 199
287 287 288 274 274 274 274 274 275 272 277 279 276 272 264 263 238 225 206 146 143 162 153 142 139 152 163 182 179 179 182 169 171 169 160 180 180 177 174 179 178 176 175 173 178 184 188 191 192 199 203 205 209 199
279 272 273 274 275 277 278 273 272 273 277 280 275 263 239 220 200 179 151 149 156 149 151 154 167 175 176 177 170 156 136 143 161 147 169 187 183 176 169 174 175 175 173 176 183 187 189 193 196 199 202 200 209 212
268 270 277 283 283 286 278 271 269 273 279 276 255 221 203 189 191 166 156 161 155 160 164 165 167 169 175 156 139 126 130 141 150 167 180 192 189 176 172 175 175 175 174 181 186 188 190 195 199 201 206 207 209 216
274 278 281 285 287 285 284 277 272 274 276 274 220 200 187 194 170 160 168 158 160 168 168 167 168 171 155 144 135 130 136 152 163 165 179 180 189 182 179 177 178 175 178 184 188 190 192 196 201 205 208 213 209 211
280 282 288 288 289 291 282 279 275 271 268 227 197 180 189 175 166 169 165 166 168 173 171 168 170 143 142 138 143 149 162 162 166 166 169 177 168 181 180 179 179 177 183 188 191 193 195 198 203 207 211 215 216 217
276 276 285 283 287 288 280 273 272 271 254 246 183 176 171 157 159 172 170 173 172 170 171 162 155 156 146 150 160 165 166 168 169 163 175 171 174 179 182 182 180 181 187 191 195 196 198 201 205 210 214 218 222 225
283 288 284 291 293 290 282 272 277 261 240 221 167 163 155 155 170 176 176 172 168 169 156 143 145 145 152 155 157 158 159 165 180 179 163 160 164 181 182 183 184 187 192 194 199 201 203 206 208 212 217 222 226 229
278 286 279 279 294 295 276 290 273 229 173 171 162 160 159 166 176 180 178 172 165 152 147 149 149 157 159 157 160 164 170 169 171 172 163 161 169 183 183 188 189 193 196 199 203 206 207 209 212 216 221 225 229 233
275 275 274 283 302 289 289 268 177 181 169 165 164 163 165 171 177 180 177 169 153 150 151 151 158 160 163 165 167 176 181 183 180 177 173 173 178 184 187 192 193 198 201 204 208 211 213 214 217 221 224 228 232 236
264 264 266 287 302 305 265 176 169 169 167 168 165 166 169 172 176 178 170 154 146 151 156 159 161 164 171 174 175 181 185 174 174 181 179 182 184 188 192 195 197 202 207 210 213 215 218 220 223 226 229 233 236 240
247 257 262 278 284 291 182 183 175 170 171 174 170 172 170 173 176 173 160 152 154 154 153 154 161 169 170 176 180 175 166 163 171 178 176 183 183 192 195 200 205 205 210 215 217 220 224 226 229 232 234 237 241 244
234 245 247 274 298 231 198 175 173 177 170 175 176 173 172 175 177 168 160 163 158 159 157 160 166 168 170 176 179 175 164 166 169 176 181 184 189 193 197 204 209 212 215 218 221 224 227 230 233 236 239 242 244 247
220 222 229 234 268 196 171 169 169 170 171 174 175 173 175 176 174 165 164 164 166 163 165 170 173 175 177 180 174 180 177 173 172 176 182 188 192 198 202 206 211 217 220 223 225 228 231 234 238 241 244 246 249 252
214 212 204 204 208 187 173 176 173 177 177 176 174 174 178 170 165 165 163 171 169 169 172 176 179 183 185 183 181 186 187 185 184 186 188 190 195 201 205 211 214 216 220 224 227 231 234 237 241 244 247 250 253 256
208 208 197 194 195 187 182 184 171 183 183 181 176 179 177 168 171 171 170 175 181 175 179 180 183 187 189 192 193 194 193 195 195 195 194 196 200 208 213 217 221 224 226 229 232 236 238 241 245 246 248 251 255 259
206 204 196 190 191 190 187 188 180 189 190 186 180 182 178 173 176 181 180 180 184 183 185 186 192 193 194 195 196 199 201 202 205 205 204 203 209 211 216 221 223 227 230 234 236 238 240 243 246 247 249 252 255 258
202 197 195 191 194 198 189 190 185 189 193 190 184 182 181 180 185 180 184 192 185 188 189 192 196 197 197 198 200 203 205 207 210 213 215 218 221 224 226 229 232 234 237 240 242 244 247 250 252 255 259 258 259 262
202 199 194 197 190 195 189 193 190 189 192 189 189 192 185 186 182 182 193 191 195 208 193 194 197 200 206 205 206 208 211 213 216 219 223 226 228 231 234 237 240 242 243 246 248 247 251 254 260 255 257 260 269 267
199 198 197 196 189 193 189 193 192 188 189 195 190 194 194 190 192 189 199 195 202 195 196 196 198 200 204 205 210 213 214 216 217 219 222 227 231 234 238 241 244 247 250 254 255 258 260 263 264 266 268 269 269 270
200 198 198 196 195 189 189 190 199 199 194 195 195 198 197 198 198 206 196 203 198 208 203 199 201 206 209 213 215 220 216 220 221 227 226 227 230 233 237 240 244 247 250 252 256 258 262 264 266 268 270 271 273 274
205 203 201 200 198 195 194 195 195 203 207 202 201 202 203 200 201 204 202 212 208 205 218 214 207 213 212 222 234 219 220 223 227 228 230 231 237 238 239 242 245 248 251 252 257 258 256 261 265 270 271 273 271 269
213 206 207 205 203 202 200 199 200 201 206 209 209 212 210 208 207 207 209 209 211 214 209 225 227 217 215 220 221 225 233 242 240 240 238 241 243 245 247 251 252 255 255 252 256 254 257 263 267 269 270 272 271 271